Location: Caltech
(34.1382°N, 118.1253°W)
Time: 04:51:40
(UTC-07:00)

Gbstr 26 Del rocket - Visible Passes

Search period start: 03 May 2015 00:00
Search period end: 13 May 2015 00:00
Orbit: 494 x 1272 km, 51.8° (Epoch: 02 May)

Date Brightness Start Highest point End Pass type
(mag) Time Alt. Az. Time Alt. Az. Time Alt. Az.
03 May 6.4 00:08:45 10° WNW 00:14:30 23° N 00:20:37 10° NE visible
03 May 6.5 01:58:27 10° NW 02:04:33 23° NNE 02:10:48 10° ENE visible
03 May 5.5 03:46:13 10° NW 03:54:00 46° NNE 04:01:26 10° ESE visible
03 May 4.1 20:28:16 10° SSW 20:34:06 59° SE 20:41:18 10° NE visible
03 May 5.5 22:15:43 10° W 22:21:56 40° NNW 22:29:09 10° NE visible
04 May 6.5 00:05:52 10° NW 00:11:27 22° N 00:17:23 10° NE visible
04 May 6.4 01:55:11 10° NW 02:01:29 25° NNE 02:07:56 10° ENE visible
04 May 5.2 03:42:46 10° NW 03:50:45 54° NE 03:58:19 10° ESE visible
04 May 4.7 05:30:42 10° WNW 05:38:23 46° SW 05:45:16 10° SSE visible
04 May 4.0 20:24:42 10° SW 20:30:38 74° SE 20:37:58 10° NE visible
04 May 5.7 22:12:42 10° W 22:18:45 34° NNW 22:25:42 10° NE visible
05 May 6.6 00:02:57 10° NW 00:08:25 21° N 00:14:13 10° NE visible
05 May 6.3 01:51:52 10° NW 01:58:23 27° NNE 02:05:04 10° ENE visible
05 May 4.9 03:39:19 10° NW 03:47:26 63° NE 03:55:08 10° ESE visible
05 May 4.9 05:27:31 10° WNW 05:34:50 37° SW 05:41:25 10° S visible
05 May 4.1 20:21:16 10° SW 20:27:12 90° WNW 20:34:35 10° NE visible
05 May 6.0 22:09:44 10° W 22:15:36 30° NNW 22:22:15 10° NE visible
05 May 6.6 23:59:58 10° NW 00:05:23 21° N 00:11:07 10° NE visible
06 May 6.2 01:48:30 10° NW 01:55:16 29° NNE 02:02:12 10° E visible
06 May 4.7 03:35:53 10° NW 03:44:05 74° NE 03:51:51 10° SE visible
06 May 5.2 05:24:26 10° WNW 05:31:16 30° WSW 05:37:25 10° S visible
06 May 4.3 20:17:54 10° SW 20:23:49 74° NW 20:31:09 10° NE visible
06 May 6.2 22:06:49 10° WNW 22:12:29 27° NNW 22:18:49 10° NE visible
06 May 6.6 23:56:56 10° NW 00:02:20 21° N 00:08:06 10° NE visible
07 May 6.0 01:45:06 10° NW 01:52:07 33° NNE 01:59:17 10° E visible
07 May 4.5 03:32:27 10° NW 03:40:42 87° NE 03:48:30 10° SE visible
07 May 5.4 05:21:29 10° WNW 05:27:41 24° WSW 05:33:13 10° S visible
07 May 4.7 20:14:38 10° WSW 20:20:29 60° NW 20:27:42 10° NE visible
07 May 6.3 22:03:56 10° WNW 22:09:23 24° NNW 22:15:26 10° NE visible
07 May 6.6 23:53:48 10° NW 23:59:17 21° N 00:05:08 10° NE visible
08 May 5.8 01:41:41 10° NW 01:48:55 37° NNE 01:56:19 10° E visible
08 May 4.4 03:29:03 10° NW 03:37:16 80° SW 03:45:02 10° SE visible
08 May 5.6 05:18:46 10° W 05:24:04 18° WSW 05:28:44 10° SSW visible
08 May 5.1 20:11:26 10° WSW 20:17:12 50° NW 20:24:13 10° NE visible
08 May 6.4 22:01:03 10° WNW 22:06:18 22° NNW 22:12:04 10° NE visible
08 May 6.5 23:50:38 10° NW 23:56:13 22° N 00:02:13 10° ENE visible
09 May 5.5 01:38:14 10° NW 01:45:42 42° NNE 01:53:18 10° E visible
09 May 4.4 03:25:42 10° NW 03:33:48 66° SW 03:41:29 10° SSE visible
09 May 5.8 05:16:31 10° W 05:20:28 14° WSW 05:23:45 10° SW visible
09 May 5.4 20:08:19 10° W 20:13:57 41° NNW 20:20:44 10° NE visible
09 May 6.5 21:58:10 10° NW 22:03:14 21° N 22:08:46 10° NE visible
09 May 6.4 23:47:22 10° NW 23:53:09 23° NNE 23:59:21 10° ENE visible
10 May 5.3 01:34:46 10° NW 01:42:26 48° NNE 01:50:14 10° ESE visible
10 May 4.5 03:22:22 10° NW 03:30:18 54° SW 03:37:50 10° SSE visible
10 May 5.7 20:05:16 10° W 20:10:44 35° NNW 20:17:14 10° NE visible
10 May 6.5 21:55:16 10° NW 22:00:10 20° N 22:05:32 10° NE visible
10 May 6.3 23:44:04 10° NW 23:50:02 25° NNE 23:56:29 10° ENE visible
11 May 5.0 01:31:18 10° NW 01:39:07 56° NE 01:42:02 39° E visible
11 May 5.1 03:19:07 10° WNW 03:24:25 36° W 03:24:25 36° W visible
11 May 5.9 20:02:16 10° W 20:07:34 30° NNW 20:13:45 10° NE visible
11 May 6.5 21:52:19 10° NW 21:57:07 19° N 22:02:22 10° NE visible
11 May 6.1 23:40:42 10° NW 23:46:55 27° NNE 23:53:37 10° ENE visible
12 May 4.7 01:27:51 10° NW 01:35:47 66° NE 01:36:16 65° ENE visible
12 May 5.9 03:15:56 10° WNW 03:18:45 21° WNW 03:18:45 21° WNW visible
12 May 6.5 21:49:17 10° NW 21:54:04 19° N 21:59:17 10° NE visible
12 May 6.0 23:37:18 10° NW 23:43:45 30° NNE 23:48:54 16° ENE visible
